This demonstration page uses our WeatherBlox Daily Observations layout. Learn more.

Left ArrowRight Arrow

Hourly Observations for February 21, 2020

Temp ( °F °C ) Dew Point ( °F °C ) Humidity (%) Winds ( mph kmh ) Pressure ( in mb ) Visibility ( mi km ) Precip ( " mm )
12:53 am 00:53 Clear 31 -0.6 12 -11.1 45 45 SW 18 30 30.12 1020 10 16 0.00 0.00
1:53 am 01:53 Clear 29 -1.7 12 -11.1 49 49 SW 17 28 30.13 1020 10 16 0.00 0.00
2:53 am 02:53 Clear 27 -2.8 11 -11.7 51 51 WSW 9 15 30.12 1020 10 16 0.00 0.00
3:53 am 03:53 Clear 30 -1.1 11 -11.7 45 45 WSW 12 19 30.10 1019 10 16 0.00 0.00
4:53 am 04:53 Clear 33 0.6 10 -12.2 38 38 SW 20 31 30.09 1019 10 16 0.00 0.00
5:53 am 05:53 Clear 32 0 9 -12.8 38 38 SW 18 30 30.09 1019 10 16 0.00 0.00
6:53 am 06:53 Clear 30 -1.1 10 -12.2 43 43 WSW 10 17 30.09 1019 10 16 0.00 0.00
7:53 am 07:53 Sunny 33 0.6 9 -12.8 36 36 SW 17 28 30.09 1019 10 16 0.00 0.00
8:53 am 08:53 Sunny 37 2.8 9 -12.8 31 31 SW 22 35 30.09 1019 10 16 0.00 0.00
9:53 am 09:53 Sunny 41 5 11 -11.7 29 29 SW 26 43 30.07 1018 10 16 0.00 0.00
10:53 am 10:53 Sunny 44 6.7 14 -10 30 30 SW 23 37 30.04 1017 10 16 0.00 0.00
11:53 am 11:53 Sunny 48 8.9 17 -8.3 29 29 SW 26 43 30.01 1016 10 16 0.00 0.00
12:53 pm 12:53 Sunny 51 10.6 17 -8.3 26 26 SW 24 39 29.97 1015 10 16 0.00 0.00
1:53 pm 13:53 Sunny 53 11.7 20 -6.7 27 27 WSW 21 33 29.93 1014 10 16 0.00 0.00
2:53 pm 14:53 Sunny 54 12.2 22 -5.6 29 29 W 14 22 29.91 1013 10 16 0.00 0.00
3:53 pm 15:53 Sunny 52 11.1 23 -5 32 32 WNW 15 24 29.91 1013 10 16 0.00 0.00
4:53 pm 16:53 Sunny 47 8.3 24 -4.4 41 41 W 14 22 29.91 1013 10 16 0.00 0.00
5:53 pm 17:53 Clear 39 3.9 22 -5.6 50 50 WSW 10 17 29.91 1013 10 16 0.00 0.00
6:53 pm 18:53 Clear 35 1.7 22 -5.6 59 59 WSW 12 19 29.93 1014 10 16 0.00 0.00
7:53 pm 19:53 Clear 37 2.8 21 -6.1 52 52 WSW 15 24 29.93 1014 10 16 0.00 0.00
8:53 pm 20:53 Clear 35 1.7 21 -6.1 57 57 SW 15 24 29.92 1013 10 16 0.00 0.00
9:53 pm 21:53 Clear 36 2.2 18 -7.8 48 48 SW 17 28 29.91 1013 10 16 0.00 0.00
10:53 pm 22:53 Clear 35 1.7 17 -8.3 48 48 SW 18 30 29.90 1013 10 16 0.00 0.00
11:53 pm 23:53 Clear 34 1.1 16 -8.9 48 48 SW 15 24 29.89 1012 10 16 0.00 0.00

Powered by AerisWeather